DECAYED
Showing default

ASTERISC, 49395 (Decayed)

Orbit data source: Space-Track

ASTERISC, 49395 was a payload satellite owned by Chiba kogyu (JP) in LEO that was launched on Tue, 09 Nov 2021 UTC via an EPSILON launch vehicle from the Kagoshima Space Center University Of Tokyo (KSCUT). Payload-class satellites include a variety of spacecraft equipped with specific instruments for various scientific and technological missions. These include communications satellites like Starlink; space stations such as the ISS; scientific satellites like the Hubble; Earth observation satellites from companies like Planet Labs, Umbra, and HawkEye 360; GPS; miniature CubeSats for education and research; and military/defense satellites.

Loading next visibility...
Identifier
49395, 2021-102A
Orbit
Decayed
Country
Flag of JPJP / JPN
Related business
Manufacturer
Chiba kogyu
Mission
Decayed Amateur Science
Bus & Motor
CUBESAT 3U, Unknown motor
Mass
4 kg wet, 4 kg dry
Launch date (UTC)
2021-11-09 (4 years ago)
Launch vehicle
EPSILON
Launch site
Kagoshima Space Center University Of Tokyo (KSCUT)
Object type
Payload
Rocket body
Debris
Shape & HBR
Box, 0.1 m
Radar Cross Section
0.035 m², Small (<0.1 m²)

Expand to show TLE details & history
Last TLE update: 1 year ago

TLE from 1 year ago
0 ASTERISC
1 49395U 21102A   25020.69331925  .18117441  25314-5  33447-3 0  9994
2 49395  97.3541  82.8399 0012950 292.8019  67.1916 16.46639417176896
Epoch: 2025-01-20T16:38Z
TLE epoch observation values (Epoch: 2025-01-20T16:38:22.783Z)
Latitude
0.00003°
Longitude
72.93473°
Altitude
148.194 km
Speed
7.819 km/s
True Right ascension
05h 31m 21s
True Declination
0° 00' 00"
Sunlit
Object was in full shadow at epoch
Visualization orbit readout
Latitude
Unknown
Longitude
Unknown
Altitude
Unknown
Speed
Unknown
Apparent Right ascension
Unknown
Apparent Declination
Unknown
Sunlit
N/A
Visualization observer readout
Local Sidereal Time
19:30:37
Azimuth
Unknown
Elevation
Unknown
Doppler factor
Unknown
Orbital elements
Apogee altitude
153.444 km
Perigee altitude
136.55 km
Semi-major axis
6,523.134 km
Eccentricity
0.0013
Inclination
97.3541°
RAAN
82.8399°
Arg. of periapsis
292.8019°
True anomaly
67.32848°
Mean anomaly
67.1916°
Eccentric anomaly
67.26003°
Mean motion
4.11963 °/min
Orbital period
87.39 mins
BSTAR
0.00033447
Loading maneuver chart data...
Computing Atmospheric mass density...
Loading historical data...
Loading historical data...
Loading historical data...
Loading historical data...
Loading historical data...
Loading historical data...
Loading historical data...

Documentation

Showing up to 5 results
|